Weather History for KHUT - August, 2014

Change the Weather History Date:

Sunday, August 24, 2014

  Actual Average (KICT) Record (KICT)
Temperature  
Mean Temperature 88 °F 79 °F  
Max Temperature 102 °F 90 °F 107 °F (2011)
Min Temperature 75 °F 68 °F 47 °F (1891)
Degree Days  
Heating Degree Days 0 0  
Month to date heating degree days 0  
Since 1 June heating degree days 6  
Since 1 July heating degree days 0  
Cooling Degree Days 24 14  
Month to date cooling degree days 372  
Year to date cooling degree days 1334  
Since 1 June cooling degree days 1198  
Growing Degree Days 38 (Base 50)    
Moisture  
Dew Point 60 °F    
Average Humidity 39    
Maximum Humidity 60    
Minimum Humidity 24    
Precipitation  
Precipitation 0.00 in 0.12 in 3.10 in (1960)
Month to date precipitation 2.84  
Year to date precipitation 23.22  
Snow  
Snow 0.00 in 0.00 in 0.00 in (2007)
Month to date snowfall 0.0  
Since 1 June snowfall 0.0  
Since 1 July snowfall 0.0  
Snow Depth -    
Sea Level Pressure  
Sea Level Pressure 29.77 in    
Wind  
Wind Speed 12 mph (South)    
Max Wind Speed 20 mph    
Max Gust Speed 30 mph    
Visibility 10 miles    
Events Thunderstorm    
T = Trace of Precipitation, MM = Missing Value Source: NWS Daily Summary

Daily Weather History Graph

Daily Weather History Graph

Search for Another Location

Airport or City:

Trip Planner

Search our weather history database for the weather conditions in past years. The results will help you decide how hot, cold, wet, or windy it might be!

Date:

Astronomy

Aug. 24, 2014 Rise Set
Actual Time 6:54 AM CDT 8:12 PM CDT
Civil Twilight 6:26 AM CDT 8:39 PM CDT
Nautical Twilight 5:54 AM CDT 9:12 PM CDT
Astronomical Twilight 5:19 AM CDT 9:46 PM CDT
Moon 6:06 AM CDT (8/24) 7:32 PM CDT (8/24)
Length of Visible Light 14h 13m
Length of Day
13h 18m
Waning Crescent, 1% of the Moon is Illuminated
Aug 24
Waning Crescent
Aug 25
New
Sep 2
First Quarter
Sep 8
Full
Sep 15
Last Quarter

Hourly Weather History & Observations

Time (CDT) Temp. Heat Index Dew Point Humidity Pressure Visibility Wind Dir Wind Speed Gust Speed Precip Events Conditions
12:52 AM 80.1 °F 80.6 °F 57.9 °F 47% 29.78 in 10.0 mi SSE 12.7 mph - N/A   Clear
1:52 AM 80.1 °F 80.6 °F 57.9 °F 47% 29.77 in 10.0 mi South 12.7 mph - N/A   Clear
2:52 AM 79.0 °F - 57.9 °F 48% 29.77 in 10.0 mi SSE 11.5 mph - N/A   Clear
3:52 AM 79.0 °F - 57.9 °F 48% 29.76 in 10.0 mi SSE 10.4 mph - N/A   Clear
4:52 AM 77.0 °F - 59.0 °F 54% 29.76 in 10.0 mi South 11.5 mph - N/A   Clear
5:52 AM 77.0 °F - 59.0 °F 54% 29.76 in 10.0 mi South 8.1 mph - N/A   Clear
6:52 AM 75.0 °F - 60.1 °F 60% 29.78 in 10.0 mi South 8.1 mph - N/A   Clear
7:52 AM 77.0 °F - 60.1 °F 56% 29.78 in 10.0 mi SSE 9.2 mph - N/A   Clear
8:52 AM 81.0 °F 81.7 °F 61.0 °F 50% 29.78 in 10.0 mi South 12.7 mph - N/A   Clear
10:52 AM 89.1 °F 89.0 °F 61.0 °F 39% 29.81 in 10.0 mi South 17.3 mph - N/A   Clear
11:52 AM 93.0 °F 93.0 °F 61.0 °F 34% 29.80 in 10.0 mi SSW 16.1 mph 29.9 mph N/A   Clear
12:52 PM 96.1 °F 96.4 °F 61.0 °F 31% 29.79 in 10.0 mi South 12.7 mph - N/A   Clear
1:52 PM 99.0 °F 100.5 °F 62.1 °F 30% 29.78 in 10.0 mi South 18.4 mph 25.3 mph N/A   Clear
2:52 PM 100.9 °F 102.7 °F 62.1 °F 28% 29.75 in 10.0 mi South 19.6 mph 26.5 mph N/A   Clear
3:52 PM 102.9 °F 103.6 °F 60.1 °F 24% 29.73 in 10.0 mi South 15.0 mph - N/A   Clear
4:52 PM 102.0 °F 102.2 °F 59.0 °F 24% 29.72 in 10.0 mi South 16.1 mph 24.2 mph N/A   Clear
5:52 PM 100.0 °F 100.2 °F 59.0 °F 26% 29.72 in 10.0 mi South 15.0 mph - N/A   Partly Cloudy
6:52 PM 96.1 °F 95.6 °F 59.0 °F 29% 29.72 in 10.0 mi South 11.5 mph - N/A   Mostly Cloudy
7:32 PM 93.9 °F 93.2 °F 59.0 °F 31% 29.80 in 10.0 mi SSE 10.4 mph - N/A Thunderstorm Mostly Cloudy
7:47 PM 93.2 °F 92.6 °F 59.0 °F 32% 29.81 in 10.0 mi SW 5.8 mph - N/A Thunderstorm Thunderstorm
7:52 PM 93.0 °F 92.7 °F 60.1 °F 33% 29.74 in 10.0 mi NW 13.8 mph 18.4 mph N/A Thunderstorm Thunderstorm
8:26 PM 91.0 °F 90.5 °F 60.1 °F 35% 29.83 in 10.0 mi Variable 5.8 mph - N/A Thunderstorm Mostly Cloudy
8:33 PM 89.1 °F 89.0 °F 61.0 °F 39% 29.83 in 10.0 mi ESE 6.9 mph - N/A   Mostly Cloudy
10:52 PM 84.0 °F 84.4 °F 61.0 °F 46% 29.81 in 10.0 mi SSE 9.2 mph - N/A   Clear